FW5172 Weather Reports


time (UTC)temp
C
wind
direction
speed
KPH
gust
KPH
rain 1hr
cm
rain 24hr
cm
rain mn
cm
humidity
%
barometer
mb
20260906032040 21 214 0.0 0.0 0.00 0.00 0.00 99 1014.8
20260906031544 21 293 0.0 0.0 0.00 0.00 0.00 100 1014.9
20260906031040 21 293 0.0 0.0 0.00 0.00 0.00 99 1014.9
20260906030540 21 299 0.0 0.0 0.00 0.00 0.00 100 1014.8
20260906030038 21 300 0.0 0.0 0.00 0.00 0.00 99 1014.8
20260906025536 21 325 0.0 0.0 0.00 0.00 0.00 99 1014.8
20260906025037 21 326 0.0 0.0 0.00 0.00 0.00 99 1014.8
20260906024537 21 325 0.0 0.0 0.00 0.00 0.00 99 1014.7
20260906024034 21 326 0.0 0.0 0.00 0.00 0.00 99 1014.7
20260906023536 21 193 0.0 0.0 0.00 0.00 0.00 99 1014.5
20260906023036 21 193 0.0 0.0 0.00 0.00 0.00 99 1014.6
20260906022532 21 193 0.0 0.0 0.00 0.00 0.00 99 1014.5
20260906022031 22 193 0.0 0.0 0.00 0.00 0.00 99 1014.3
20260906021532 22 193 0.0 0.0 0.00 0.00 0.00 99 1014.3
20260906021029 22 193 0.0 0.0 0.00 0.00 0.00 98 1014.2
20260906020530 22 176 0.0 0.0 0.00 0.00 0.00 98 1014.2
20260906020030 22 127 0.0 0.0 0.00 0.00 0.00 98 1013.9
20260906015528 22 127 0.0 0.0 0.00 0.00 0.00 98 1014.1
20260906015027 22 127 0.0 0.0 0.00 0.00 0.00 98 1014.1
20260906014533 22 127 0.0 0.0 0.00 0.00 0.00 98 1014.0
20260906014025 22 127 0.0 0.0 0.00 0.00 0.00 98 1013.9
20260906013529 22 276 0.0 0.0 0.00 0.00 0.00 98 1014.0
20260906013026 22 277 0.0 0.0 0.00 0.00 0.00 97 1014.0
20260906012524 22 257 0.0 0.0 0.00 0.00 0.00 97 1013.9
20260906012024 22 257 0.0 0.0 0.00 0.00 0.00 97 1013.9
20260906011523 22 257 0.0 0.0 0.00 0.00 0.00 96 1013.7
20260906011023 22 257 0.0 0.0 0.00 0.00 0.00 96 1013.7
20260906010521 23 257 0.0 0.0 0.00 0.00 0.00 96 1013.6
20260906010022 23 257 0.0 0.0 0.00 0.00 0.00 96 1013.5
20260906005524 23 257 0.0 0.0 0.00 0.00 0.00 96 1013.5
20260906005020 23 257 0.0 0.0 0.00 0.00 0.00 95 1013.5
20260906004522 23 257 0.0 0.0 0.00 0.00 0.00 95 1013.5
20260906004018 23 257 0.0 0.0 0.00 0.00 0.00 94 1013.3
20260906003522 23 257 0.0 0.0 0.00 0.00 0.00 94 1013.1
20260906003018 23 257 0.0 0.0 0.00 0.00 0.00 93 1013.3
20260906002523 23 257 0.0 0.0 0.00 0.00 0.00 93 1013.2
20260906002016 24 257 0.0 0.0 0.00 0.00 0.00 92 1013.1
20260906001516 24 257 0.0 0.0 0.00 0.00 0.00 92 1013.1
20260906001014 25 264 0.0 0.0 0.00 0.00 0.00 91 1012.9
20260906000514 25 264 0.0 0.0 0.00 0.00 0.00 90 1012.9
20260906000013 25 264 0.0 0.0 0.00 0.00 0.00 89 1012.8
20260905235515 26 264 0.0 0.0 0.00 0.00 0.00 87 1012.8
20260905235012 26 264 0.0 0.0 0.00 0.00 0.00 86 1012.9
20260905234512 26 264 0.0 0.0 0.00 0.00 0.00 85 1012.8
20260905234013 26 264 0.0 0.0 0.00 0.00 0.00 84 1012.7
20260905233510 27 264 0.0 0.0 0.00 0.00 0.00 83 1012.6
20260905233021 27 264 0.0 0.0 0.00 0.00 0.00 82 1012.7
20260905232514 27 264 0.0 0.0 0.00 0.00 0.00 79 1012.6
20260905232012 28 265 0.0 0.0 0.00 0.00 0.00 79 1012.6
20260905231509 28 252 0.0 0.0 0.00 0.00 0.00 78 1012.6
20260905231011 28 124 0.0 0.0 0.00 0.00 0.00 75 1012.6
20260905230507 28 124 0.0 1.6 0.00 0.00 0.00 74 1012.5
20260905230007 30 167 0.0 0.0 0.00 0.00 0.00 72 1012.5
20260905225506 29 167 0.0 0.0 0.00 0.00 0.00 74 1012.6
20260905225005 28 167 0.0 3.2 0.00 0.00 0.00 73 1012.5
20260905224508 28 167 0.0 3.2 0.00 0.00 0.00 73 1012.5
20260905224004 28 128 0.0 1.6 0.00 0.00 0.00 73 1012.5
20260905223503 29 111 0.0 1.6 0.00 0.00 0.00 71 1012.3
20260905223003 29 57 0.0 1.6 0.00 0.00 0.00 70 1012.3
20260905222503 29 96 0.0 4.8 0.00 0.00 0.00 70 1012.3
20260905222101 29 32 1.6 4.8 0.00 0.00 0.00 69 1012.3
20260905221602 30 31 0.0 1.6 0.00 0.00 0.00 69 1012.4
20260905221059 30 326 0.0 1.6 0.00 0.00 0.00 67 1012.5
20260905220558 30 125 0.0 1.6 0.00 0.00 0.00 68 1012.5
20260905220057 30 148 0.0 1.6 0.00 0.00 0.00 67 1012.5
20260905215557 30 152 0.0 3.2 0.00 0.00 0.00 68 1012.6
20260905215056 29 309 0.0 3.2 0.00 0.00 0.00 69 1012.6
20260905214605 29 167 0.0 1.6 0.00 0.00 0.00 69 1012.7
20260905214053 30 152 0.0 1.6 0.00 0.00 0.00 67 1012.7
20260905213552 29 284 0.0 1.6 0.00 0.00 0.00 69 1012.7
20260905213051 28 284 0.0 4.8 0.00 0.00 0.00 70 1012.8
20260905212551 28 257 0.0 6.4 0.00 0.00 0.00 70 1012.8
20260905212050 28 243 1.6 6.4 0.00 0.00 0.00 72 1012.9
20260905211549 28 296 0.0 4.8 0.00 0.00 0.00 72 1012.9
20260905211048 27 270 1.6 4.8 0.00 0.00 0.00 72 1012.9
20260905210547 27 293 0.0 4.8 0.00 0.00 0.00 72 1012.9
20260905210048 27 195 0.0 4.8 0.00 0.00 0.00 76 1012.9
20260905205545 26 324 0.0 4.8 0.00 0.00 0.00 76 1013.1
20260905205043 26 302 0.0 3.2 0.00 0.00 0.00 78 1013.1
20260905204543 26 60 0.0 3.2 0.00 0.00 0.00 78 1013.1
20260905204041 26 114 0.0 1.6 0.00 0.00 0.00 80 1013.2
20260905203543 25 125 0.0 1.6 0.00 0.00 0.00 82 1013.3
20260905203041 25 136 0.0 4.8 0.00 0.00 0.00 82 1013.4
20260905202640 25 129 1.6 4.8 0.00 0.00 0.00 81 1013.5
20260905202041 25 243 0.0 1.6 0.00 0.00 0.00 80 1013.8
20260905201540 25 239 0.0 1.6 0.00 0.00 0.00 80 1013.9
20260905201037 25 239 0.0 1.6 0.00 0.00 0.00 80 1014.0
20260905200536 25 244 0.0 0.0 0.00 0.00 0.00 80 1014.0
20260905200042 25 181 0.0 1.6 0.00 0.00 0.00 80 1013.7
20260905195538 25 241 0.0 1.6 0.00 0.00 0.00 80 1013.9
20260905195035 25 218 0.0 1.6 0.00 0.00 0.00 80 1013.8
20260905194533 25 252 0.0 4.8 0.00 0.00 0.00 80 1013.8
20260905194033 24 108 1.6 4.8 0.00 0.00 0.00 79 1013.9
20260905193529 24 300 0.0 3.2 0.00 0.00 0.00 79 1013.9
20260905193031 24 166 0.0 3.2 0.00 0.00 0.00 80 1014.1
20260905192528 24 211 0.0 8.0 0.00 0.00 0.00 81 1014.3
20260905192030 24 217 3.2 11.3 0.00 0.00 0.00 80 1014.0
20260905191527 24 284 3.2 12.9 0.00 0.00 0.00 80 1014.0
20260905191028 25 231 0.0 12.9 0.00 0.00 0.00 79 1014.2
20260905190525 25 221 1.6 8.0 0.00 0.00 0.00 79 1014.3
20260905190025 25 157 0.0 6.4 0.00 0.00 0.00 78 1014.2
20260905185523 25 205 0.0 16.1 0.00 0.00 0.00 77 1014.3
20260905185023 26 272 3.2 16.1 0.00 0.00 0.00 76 1014.2
20260905184529 26 257 3.2 11.3 0.00 0.00 0.00 73 1014.1
20260905184025 26 234 0.0 8.0 0.00 0.00 0.00 71 1014.0
20260905183524 27 262 1.6 16.1 0.00 0.00 0.00 69 1014.1
20260905183026 27 307 8.0 16.1 0.00 0.00 0.00 67 1013.9
20260905182519 28 255 3.2 11.3 0.00 0.00 0.00 65 1014.0
20260905182020 28 234 0.0 12.9 0.00 0.00 0.00 67 1013.9
20260905181519 29 126 1.6 24.1 0.00 0.00 0.00 64 1013.5
20260905181017 30 339 9.7 24.1 0.00 0.00 0.00 59 1013.7
20260905180516 31 338 8.0 32.2 0.00 0.00 0.00 61 1013.6
20260905180016 32 332 17.7 32.2 0.00 0.00 0.00 60 1013.9
20260905175514 32 333 11.3 22.5 0.00 0.00 0.00 60 1013.7
20260905175014 33 24 6.4 22.5 0.00 0.00 0.00 59 1014.0
20260905174527 33 67 12.9 20.9 0.00 0.00 0.00 57 1014.1
20260905174011 33 6 12.9 20.9 0.00 0.00 0.00 57 1013.9
20260905173510 33 337 9.7 22.5 0.00 0.00 0.00 56 1014.2
20260905173008 33 321 12.9 22.5 0.00 0.00 0.00 57 1014.3
20260905172508 33 315 11.3 22.5 0.00 0.00 0.00 57 1014.3
20260905172011 33 251 4.8 22.5 0.00 0.00 0.00 56 1014.4
20260905171507 33 284 12.9 24.1 0.00 0.00 0.00 57 1014.4
20260905171009 33 325 12.9 24.1 0.00 0.00 0.00 57 1014.5
20260905170504 33 347 6.4 14.5 0.00 0.00 0.00 60 1014.4
20260905170003 33 334 8.0 14.5 0.00 0.00 0.00 59 1014.5
20260905165501 33 318 1.6 4.8 0.00 0.00 0.00 62 1014.5
20260905165103 33 321 0.0 9.7 0.00 0.00 0.00 64 1014.3
20260905164600 32 301 4.8 9.7 0.00 0.00 0.00 62 1014.5
20260905164058 32 271 0.0 9.7 0.00 0.00 0.00 62 1014.7
20260905163557 32 352 3.2 11.3 0.00 0.00 0.00 64 1014.6
20260905163104 32 54 1.6 11.3 0.00 0.00 0.00 62 1014.7
20260905162557 32 32 1.6 14.5 0.00 0.00 0.00 63 1014.7
20260905162055 32 46 4.8 14.5 0.00 0.00 0.00 64 1015.0
20260905161553 32 58 0.0 12.9 0.00 0.00 0.00 65 1015.0
20260905161053 32 252 1.6 12.9 0.00 0.00 0.00 64 1015.2
20260905160554 32 266 1.6 6.4 0.00 0.00 0.00 66 1015.2
20260905160056 32 253 0.0 9.7 0.00 0.00 0.00 67 1015.2
20260905155549 32 340 4.8 9.7 0.00 0.00 0.00 66 1015.2
20260905155048 32 251 0.0 6.4 0.00 0.00 0.00 67 1015.3
20260905154549 32 30 0.0 0.0 0.00 0.00 0.00 68 1015.3
20260905154046 32 338 0.0 1.6 0.00 0.00 0.00 69 1015.2
20260905153545 32 13 0.0 1.6 0.00 0.00 0.00 69 1015.2
20260905153042 31 134 0.0 1.6 0.00 0.00 0.00 69 1015.1
20260905152541 31 162 0.0 1.6 0.00 0.00 0.00 71 1015.1
20260905152039 31 152 0.0 3.2 0.00 0.00 0.00 71 1015.1
20260905151539 31 271 0.0 1.6 0.00 0.00 0.00 71 1015.0
20260905151041 31 167 0.0 1.6 0.00 0.00 0.00 71 1015.0
20260905150635 31 146 0.0 3.2 0.00 0.00 0.00 74 1015.0
20260905150034 30 231 0.0 4.8 0.00 0.00 0.00 74 1015.0
20260905145535 30 143 0.0 4.8 0.00 0.00 0.00 72 1015.1
20260905145032 30 162 0.0 1.6 0.00 0.00 0.00 73 1015.0
20260905144543 30 350 0.0 1.6 0.00 0.00 0.00 74 1015.1
20260905144028 29 104 0.0 3.2 0.00 0.00 0.00 75 1015.1
20260905143526 29 135 0.0 3.2 0.00 0.00 0.00 76 1015.2
20260905143026 29 91 0.0 0.0 0.00 0.00 0.00 78 1015.3
20260905142523 29 284 0.0 0.0 0.00 0.00 0.00 78 1015.3
20260905142024 28 85 0.0 0.0 0.00 0.00 0.00 80 1015.4
20260905141533 28 67 0.0 1.6 0.00 0.00 0.00 82 1015.3
20260905141018 28 122 0.0 1.6 0.00 0.00 0.00 82 1015.3
20260905140517 28 141 0.0 3.2 0.00 0.00 0.00 82 1015.2
20260905140016 28 114 0.0 3.2 0.00 0.00 0.00 82 1015.3
20260905135514 27 162 0.0 1.6 0.00 0.00 0.00 85 1015.4
20260905135012 27 68 0.0 1.6 0.00 0.00 0.00 85 1015.3
20260905134516 27 155 0.0 1.6 0.00 0.00 0.00 86 1015.2
20260905134009 27 111 0.0 1.6 0.00 0.00 0.00 87 1015.4
20260905133506 26 137 0.0 1.6 0.00 0.00 0.00 86 1015.5
20260905133008 26 106 0.0 1.6 0.00 0.00 0.00 87 1015.4
20260905132506 26 116 0.0 1.6 0.00 0.00 0.00 86 1015.5
20260905132004 26 184 0.0 0.0 0.00 0.00 0.00 86 1015.4
20260905131503 26 195 0.0 0.0 0.00 0.00 0.00 87 1015.6
20260905131003 26 198 0.0 0.0 0.00 0.00 0.00 86 1015.7
20260905130501 26 200 0.0 0.0 0.00 0.00 0.00 86 1015.7
20260905130104 26 198 0.0 0.0 0.00 0.00 0.00 89 1015.8
20260905125559 25 198 0.0 0.0 0.00 0.00 0.00 88 1015.8
20260905125059 26 213 0.0 0.0 0.00 0.00 0.00 89 1015.8
20260905124557 25 214 0.0 0.0 0.00 0.00 0.00 89 1015.8
20260905124055 25 214 0.0 0.0 0.00 0.00 0.00 91 1015.7
20260905123553 25 214 0.0 0.0 0.00 0.00 0.00 92 1015.7
20260905123056 24 214 0.0 0.0 0.00 0.00 0.00 93 1015.7
20260905122549 23 214 0.0 0.0 0.00 0.00 0.00 95 1015.8
20260905122048 23 214 0.0 0.0 0.00 0.00 0.00 96 1015.8
20260905121546 23 214 0.0 0.0 0.00 0.00 0.00 98 1015.8
20260905121046 22 214 0.0 0.0 0.00 0.00 0.00 98 1015.7
20260905120545 22 214 0.0 0.0 0.00 0.00 0.00 100 1015.6
20260905120043 21 214 0.0 0.0 0.00 0.00 0.00 100 1015.5
20260905115545 21 214 0.0 0.0 0.00 0.00 0.00 100 1015.6
20260905115047 21 214 0.0 0.0 0.00 0.00 0.00 100 1015.4
20260905114615 21 214 0.0 0.0 0.00 0.00 0.00 100 1015.5
20260905114041 21 214 0.0 0.0 0.00 0.00 0.00 100 1015.5
20260905113541 20 214 0.0 0.0 0.00 0.00 0.00 100 1015.4
20260905113039 20 214 0.0 0.0 0.00 0.00 0.00 100 1015.3
20260905112539 20 214 0.0 0.0 0.00 0.00 0.00 100 1015.3
20260905112039 20 214 0.0 0.0 0.00 0.00 0.00 100 1015.2
20260905111548 20 214 0.0 0.0 0.00 0.00 0.00 100 1015.2
20260905111038 20 214 0.0 0.0 0.00 0.00 0.00 100 1015.1
20260905110539 20 214 0.0 0.0 0.00 0.00 0.00 100 1015.1
20260905110036 20 214 0.0 0.0 0.00 0.00 0.00 100 1015.0
20260905105636 20 214 0.0 0.0 0.00 0.00 0.00 100 1014.9
20260905105035 20 214 0.0 0.0 0.00 0.00 0.00 100 1014.8
20260905104535 20 214 0.0 0.0 0.00 0.00 0.00 100 1014.8
20260905104035 20 214 0.0 0.0 0.00 0.00 0.00 100 1014.6
20260905103533 20 214 0.0 0.0 0.00 0.00 0.00 100 1014.6
20260905103034 20 214 0.0 0.0 0.00 0.00 0.00 100 1014.5
20260905102532 20 214 0.0 0.0 0.00 0.00 0.00 100 1014.5
20260905102033 21 214 0.0 0.0 0.00 0.00 0.00 100 1014.5
20260905101630 21 214 0.0 0.0 0.00 0.00 0.00 100 1014.4
20260905101027 21 214 0.0 0.0 0.00 0.00 0.00 100 1014.4
20260905100527 21 214 0.0 0.0 0.00 0.00 0.00 100 1014.4
20260905100025 21 214 0.0 0.0 0.00 0.00 0.00 100 1014.5
20260905095524 21 214 0.0 0.0 0.00 0.00 0.00 100 1014.5
20260905095024 21 214 0.0 0.0 0.00 0.00 0.00 100 1014.4
20260905094524 21 214 0.0 0.0 0.00 0.00 0.00 100 1014.4
20260905094021 21 214 0.0 0.0 0.00 0.00 0.00 100 1014.4
20260905093520 21 214 0.0 0.0 0.00 0.00 0.00 100 1014.5
20260905093020 21 262 0.0 0.0 0.00 0.00 0.00 100 1014.4
20260905092521 21 262 0.0 0.0 0.00 0.00 0.00 100 1014.4
20260905092022 21 262 0.0 0.0 0.00 0.00 0.00 100 1014.4
20260905091517 21 262 0.0 1.6 0.00 0.00 0.00 100 1014.5
20260905091016 21 262 0.0 1.6 0.00 0.00 0.00 100 1014.4
20260905090515 21 278 0.0 0.0 0.00 0.00 0.00 100 1014.4
20260905090014 21 279 0.0 0.0 0.00 0.00 0.00 100 1014.5
20260905085518 21 279 0.0 0.0 0.00 0.00 0.00 100 1014.5
20260905085014 21 279 0.0 0.0 0.00 0.00 0.00 100 1014.5
20260905084515 21 279 0.0 0.0 0.00 0.00 0.00 100 1014.5
20260905084010 21 279 0.0 0.0 0.00 0.00 0.00 100 1014.7
20260905083509 21 279 0.0 0.0 0.00 0.00 0.00 100 1014.7
20260905083008 21 279 0.0 0.0 0.00 0.00 0.00 100 1014.8
20260905082507 21 279 0.0 1.6 0.00 0.00 0.00 100 1014.9
20260905082006 21 77 0.0 1.6 0.00 0.00 0.00 100 1014.8
20260905081505 21 145 0.0 0.0 0.00 0.00 0.00 100 1014.9
20260905081003 21 210 0.0 0.0 0.00 0.00 0.00 100 1015.0
20260905080504 21 210 0.0 0.0 0.00 0.00 0.00 100 1015.0
20260905080002 21 210 0.0 0.0 0.00 0.00 0.00 100 1015.1
20260905075601 21 210 0.0 0.0 0.00 0.00 0.00 100 1015.2
20260905075059 21 211 0.0 0.0 0.00 0.00 0.00 100 1015.2
20260905074603 21 211 0.0 0.0 0.00 0.00 0.00 100 1015.2
20260905074100 21 207 0.0 0.0 0.00 0.00 0.00 100 1015.2
20260905073556 21 207 0.0 0.0 0.00 0.00 0.00 100 1015.2
20260905073104 21 207 0.0 0.0 0.00 0.00 0.00 100 1015.2
20260905072554 22 207 0.0 0.0 0.00 0.00 0.00 100 1015.2
20260905072052 22 207 0.0 0.0 0.00 0.00 0.00 100 1015.3
20260905071552 22 207 0.0 0.0 0.00 0.00 0.00 100 1015.3
20260905071054 22 207 0.0 0.0 0.00 0.00 0.00 100 1015.4
20260905070550 22 207 0.0 0.0 0.00 0.00 0.00 100 1015.3
20260905070049 22 207 0.0 0.0 0.00 0.00 0.00 100 1015.5
20260905065549 22 207 0.0 0.0 0.00 0.00 0.00 100 1015.4
20260905065051 22 207 0.0 0.0 0.00 0.00 0.00 100 1015.5
20260905064605 22 207 0.0 0.0 0.00 0.00 0.00 100 1015.6
20260905064045 22 207 0.0 0.0 0.00 0.00 0.00 100 1015.6
20260905063547 22 207 0.0 0.0 0.00 0.00 0.00 100 1015.8
20260905063048 22 207 0.0 0.0 0.00 0.00 0.00 100 1015.7
20260905062543 22 207 0.0 0.0 0.00 0.00 0.00 100 1015.8
20260905062043 22 207 0.0 0.0 0.00 0.00 0.00 100 1015.8
20260905061549 22 206 0.0 0.0 0.00 0.00 0.00 100 1015.9
20260905061042 22 206 0.0 0.0 0.00 0.00 0.00 100 1016.0
20260905060539 22 206 0.0 0.0 0.00 0.00 0.00 100 1016.1
20260905060046 22 206 0.0 0.0 0.00 0.00 0.00 100 1016.2
20260905055537 22 206 0.0 0.0 0.00 0.00 0.00 100 1016.2
20260905055040 22 206 0.0 0.0 0.00 0.00 0.00 100 1016.3
20260905054536 22 212 0.0 0.0 0.00 0.00 0.00 100 1016.4
20260905054035 22 212 0.0 0.0 0.00 0.00 0.00 100 1016.3
20260905053534 22 238 0.0 0.0 0.00 0.00 0.00 100 1016.5
20260905053036 22 238 0.0 1.6 0.00 0.00 0.00 100 1016.3
20260905052632 22 238 0.0 1.6 0.00 0.00 0.00 100 1016.4
20260905052034 22 238 0.0 0.0 0.00 0.00 0.00 100 1016.4
20260905051531 22 238 0.0 0.0 0.00 0.00 0.00 100 1016.4
20260905051029 22 238 0.0 0.0 0.00 0.00 0.00 100 1016.4
20260905050530 23 239 0.0 0.0 0.00 0.00 0.00 100 1016.4
20260905050034 23 239 0.0 0.0 0.00 0.00 0.00 100 1016.4
20260905045528 23 240 0.0 0.0 0.00 0.00 0.00 100 1016.5
20260905045026 23 137 0.0 0.0 0.00 0.00 0.00 100 1016.4
20260905044527 23 137 0.0 0.0 0.00 0.00 0.00 100 1016.3
20260905044028 23 137 0.0 1.6 0.00 0.00 0.00 100 1016.3
20260905043523 23 141 0.0 1.6 0.00 0.00 0.00 100 1016.4
20260905043023 23 257 0.0 0.0 0.00 0.00 0.00 100 1016.4
20260905042522 23 257 0.0 0.0 0.00 0.00 0.00 100 1016.3
20260905042021 23 257 0.0 0.0 0.00 0.00 0.00 99 1016.3
20260905041520 23 257 0.0 0.0 0.00 0.00 0.00 99 1016.1
20260905041019 23 257 0.0 0.0 0.00 0.00 0.00 99 1016.0
20260905040517 23 257 0.0 0.0 0.00 0.00 0.00 99 1016.1
20260905040019 23 257 0.0 0.0 0.00 0.00 0.00 99 1016.0
20260905035615 23 257 0.0 0.0 0.00 0.00 0.00 99 1016.1
20260905035013 23 257 0.0 0.0 0.00 0.00 0.00 99 1016.1
20260905034512 23 257 0.0 0.0 0.00 0.00 0.00 99 1016.1
20260905034013 23 257 0.0 0.0 0.00 0.00 0.00 99 1016.1
20260905033510 23 257 0.0 0.0 0.00 0.00 0.00 99 1016.1
20260905033025 23 257 0.0 1.6 0.00 0.00 0.00 99 1015.9
20260905032509 23 257 0.0 1.6 0.00 0.00 0.00 99 1015.8